Regional Weather Roundup
Issued by NWS

Home | Current Version | Previous Version | Text Only | Print | Product List | Glossary On
Versions: 1 2 3 4 5 6 7 8 9 10 11 12 13 14 15 16 17 18 19 20 21 22 23 24 25 26 27 28 29 30 31 32 33 34 35 36 37 38 39 40 41 42 43 44 45 46 47 48 49 50
000
ASCA42 TJSJ 240910
RWRPR
PUERTO RICO/U.S. VIRGIN ISLANDS HOURLY WEATHER ROUNDUP
NATIONAL WEATHER SERVICE SAN JUAN PR
500 AM AST FRI FEB 24 2017

PRZ001>002-007>008-010-241000-
PUERTO RICO

CITY           SKY/WX    TMP DP  RH WIND       PRES   REMARKS
SAN JUAN LMM   MOCLDY    73  70  88 S3        29.91R
PONCE          MOCLDY    75  68  78 CALM      29.93R
AGUADILLA      CLOUDY    73  68  83 SE6       29.91S
CEIBA          CLOUDY    73  72  94 NW3       29.93F
$$

VIZ001>002-241000-
U.S. VIRGIN ISLANDS

CITY           SKY/WX    TMP DP  RH WIND       PRES   REMARKS
CHARLOTTE AMA  MOCLDY    73  70  88 E7        29.90F
CHRISTIANSTED  CLOUDY    72  70  94 E3        29.92S
$$

HOURLY WEATHER ROUNDUP FOR THE NEWS MEDIA

CITY           SKY/WX    TMP DP  RH WIND       PRES   REMARKS
ORLANDO        CLOUDY    66  64  93 N8        29.75R
NEW YORK       PTCLDY    46  46 100 SE6       29.93S
NEWARK         PTCLDY    54  49  83 CALM      29.91S
CHICAGO        CLOUDY    40  38  93 NE13      29.56F WCI  32
HARTFORD       CLEAR     51  47  86 SW10      29.93R
BOSTON         PTCLDY    47  47 100 CALM      29.91R
DALLAS         PTCLDY    64  59  83 S7        29.58F
PHILADELPHIA   PTCLDY    53  50  89 W5        29.92S
LOS ANGELES    CLEAR     49  19  30 N6        30.11S
WASHINGTON DC  PTCLDY    58  50  75 S6        29.89S


USA.gov is the U.S. government's official web portal to all federal, state and local government web resources and services.